| time (UTC) | temp F | wind direction | speed knots | gust knots | rain 1hr in | rain 24hr in | rain mn in | humidity % | barometer mb |
| 20260506084206 | 49 | 324 | 2.6 | 7.0 | 0.00 | 0.00 | 0.00 | 35 | 1009.7 |
| 20260506083236 | 47 | 304 | 3.5 | 7.8 | 0.00 | 0.00 | 0.00 | 37 | 1009.7 |
| 20260506081749 | 48 | 328 | 5.2 | 8.7 | 0.00 | 0.00 | 0.00 | 39 | 1009.6 |
| 20260506080449 | 48 | 351 | 5.2 | 10.4 | 0.00 | 0.00 | 0.00 | 39 | 1009.6 |
| 20260506073224 | 48 | 265 | 3.5 | 7.0 | 0.00 | 0.00 | 0.00 | 42 | 1009.4 |
| 20260506072312 | 48 | 315 | 5.2 | 8.7 | 0.00 | 0.00 | 0.00 | 43 | 1009.3 |
| 20260506070954 | 46 | 313 | 4.3 | 8.7 | 0.00 | 0.00 | 0.00 | 46 | 1009.2 |
| 20260506061919 | 45 | 291 | 2.6 | 4.3 | 0.00 | 0.00 | 0.00 | 54 | 1009.0 |
| 20260506060519 | 44 | 283 | 3.5 | 7.0 | 0.00 | 0.00 | 0.00 | 56 | 1008.8 |
| 20260506051134 | 41 | 315 | 5.2 | 8.7 | 0.00 | 0.00 | 0.00 | 65 | 1008.2 |
| 20260506044236 | 40 | 300 | 2.6 | 6.1 | 0.00 | 0.00 | 0.00 | 70 | 1007.8 |
| 20260506043319 | 39 | 309 | 4.3 | 8.7 | 0.00 | 0.00 | 0.00 | 70 | 1007.8 |
| 20260506041934 | 39 | 313 | 2.6 | 5.2 | 0.00 | 0.00 | 0.00 | 72 | 1007.7 |
| 20260506040604 | 38 | 313 | 1.7 | 6.1 | 0.00 | 0.00 | 0.00 | 73 | 1007.5 |
| 20260506040021 | 38 | 299 | 2.6 | 5.2 | 0.00 | 0.00 | 0.00 | 74 | 1007.5 |
| 20260506034702 | 37 | 298 | 2.6 | 4.3 | 0.00 | 0.00 | 0.00 | 76 | 1007.3 |
| 20260506033332 | 36 | 304 | 2.6 | 5.2 | 0.00 | 0.00 | 0.00 | 77 | 1007.2 |
| 20260506032449 | 36 | 271 | 1.7 | 4.3 | 0.00 | 0.00 | 0.00 | 77 | 1007.1 |
| 20260506031302 | 36 | 312 | 1.7 | 4.3 | 0.00 | 0.00 | 0.00 | 77 | 1007.0 |
| 20260506030032 | 35 | 274 | 1.7 | 3.5 | 0.00 | 0.00 | 0.00 | 78 | 1006.9 |
| 20260506025219 | 35 | 265 | 2.6 | 5.2 | 0.00 | 0.00 | 0.00 | 78 | 1006.8 |
| 20260506023842 | 34 | 266 | 2.6 | 5.2 | 0.00 | 0.00 | 0.00 | 79 | 1006.6 |
| 20260506023044 | 34 | 284 | 0.9 | 2.6 | 0.00 | 0.00 | 0.00 | 80 | 1006.6 |
| 20260506022344 | 34 | 276 | 0.9 | 2.6 | 0.00 | 0.00 | 0.00 | 80 | 1006.5 |
| 20260506021509 | 34 | 256 | 1.7 | 2.6 | 0.00 | 0.00 | 0.00 | 80 | 1006.5 |
| 20260506020936 | 34 | 268 | 0.9 | 1.7 | 0.00 | 0.00 | 0.00 | 80 | 1006.4 |
| 20260506015734 | 34 | 267 | 0.9 | 1.7 | 0.00 | 0.00 | 0.00 | 79 | 1006.2 |
| 20260506014729 | 34 | 295 | 0.9 | 2.6 | 0.00 | 0.00 | 0.00 | 79 | 1006.2 |
| 20260506013939 | 35 | 311 | 1.7 | 3.5 | 0.00 | 0.00 | 0.00 | 79 | 1006.2 |
| 20260506013224 | 35 | 307 | 2.6 | 5.2 | 0.00 | 0.00 | 0.00 | 79 | 1006.1 |
| 20260506012229 | 35 | 302 | 0.9 | 3.5 | 0.00 | 0.00 | 0.00 | 79 | 1006.1 |
| 20260506010906 | 35 | 280 | 0.9 | 1.7 | 0.00 | 0.00 | 0.00 | 78 | 1006.0 |
| 20260506010019 | 35 | 281 | 0.9 | 1.7 | 0.00 | 0.00 | 0.00 | 77 | 1006.0 |
| 20260506004549 | 35 | 280 | 1.7 | 3.5 | 0.00 | 0.00 | 0.00 | 77 | 1005.8 |
| 20260506003919 | 35 | 277 | 1.7 | 2.6 | 0.00 | 0.00 | 0.00 | 76 | 1005.7 |
| 20260506003149 | 35 | 305 | 1.7 | 4.3 | 0.00 | 0.00 | 0.00 | 76 | 1005.7 |
| 20260506002212 | 36 | 312 | 1.7 | 3.5 | 0.00 | 0.00 | 0.00 | 76 | 1005.6 |
| 20260506000739 | 36 | 304 | 2.6 | 5.2 | 0.00 | 0.00 | 0.00 | 75 | 1005.6 |
| 20260506000106 | 36 | 286 | 1.7 | 3.5 | 0.00 | 0.00 | 0.00 | 75 | 1005.6 |
| 20260505235519 | 36 | 292 | 1.7 | 3.5 | 0.00 | 0.00 | 0.00 | 75 | 1005.5 |
| 20260505234402 | 36 | 274 | 1.7 | 4.3 | 0.00 | 0.00 | 0.00 | 74 | 1005.5 |
| 20260505233809 | 37 | 285 | 1.7 | 5.2 | 0.00 | 0.00 | 0.00 | 74 | 1005.5 |
| 20260505232619 | 37 | 268 | 2.6 | 4.3 | 0.00 | 0.00 | 0.00 | 73 | 1005.4 |
| 20260505231659 | 37 | 266 | 2.6 | 4.3 | 0.00 | 0.00 | 0.00 | 72 | 1005.3 |
| 20260505231134 | 37 | 309 | 2.6 | 4.3 | 0.00 | 0.00 | 0.00 | 72 | 1005.3 |
| 20260505230359 | 37 | 284 | 2.6 | 5.2 | 0.00 | 0.00 | 0.00 | 72 | 1005.2 |
| 20260505225829 | 37 | 274 | 2.6 | 4.3 | 0.00 | 0.00 | 0.00 | 72 | 1005.2 |
| 20260505224332 | 38 | 297 | 1.7 | 4.3 | 0.00 | 0.00 | 0.00 | 71 | 1005.0 |
| 20260505222949 | 38 | 294 | 2.6 | 5.2 | 0.00 | 0.00 | 0.00 | 70 | 1004.9 |
| 20260505222122 | 38 | 305 | 2.6 | 5.2 | 0.00 | 0.00 | 0.00 | 70 | 1004.9 |
| 20260505220821 | 38 | 284 | 2.6 | 6.1 | 0.00 | 0.00 | 0.00 | 69 | 1004.8 |
| 20260505215502 | 39 | 287 | 2.6 | 8.7 | 0.00 | 0.00 | 0.00 | 68 | 1004.8 |
| 20260505214249 | 39 | 279 | 2.6 | 6.1 | 0.00 | 0.00 | 0.00 | 66 | 1004.8 |
| 20260505212814 | 39 | 255 | 3.5 | 7.0 | 0.00 | 0.00 | 0.00 | 65 | 1004.6 |
| 20260505212032 | 40 | 268 | 2.6 | 6.1 | 0.00 | 0.00 | 0.00 | 64 | 1004.5 |
| 20260505211421 | 40 | 271 | 2.6 | 7.0 | 0.00 | 0.00 | 0.00 | 63 | 1004.5 |
| 20260505210829 | 40 | 274 | 2.6 | 5.2 | 0.00 | 0.00 | 0.00 | 63 | 1004.5 |
| 20260505205912 | 40 | 264 | 2.6 | 5.2 | 0.00 | 0.00 | 0.00 | 62 | 1004.4 |
| 20260505204712 | 40 | 275 | 2.6 | 6.1 | 0.00 | 0.00 | 0.00 | 61 | 1004.3 |
| 20260505203914 | 41 | 285 | 1.7 | 4.3 | 0.00 | 0.00 | 0.00 | 61 | 1004.1 |
| 20260505202622 | 41 | 285 | 3.5 | 5.2 | 0.00 | 0.00 | 0.00 | 59 | 1003.9 |
| 20260505201449 | 41 | 275 | 1.7 | 4.3 | 0.00 | 0.00 | 0.00 | 59 | 1003.9 |
| 20260505200551 | 42 | 293 | 1.7 | 5.2 | 0.00 | 0.00 | 0.00 | 58 | 1003.8 |
| 20260505195129 | 42 | 290 | 2.6 | 7.0 | 0.00 | 0.00 | 0.00 | 55 | 1003.7 |
| 20260505193949 | 42 | 277 | 4.3 | 9.6 | 0.00 | 0.00 | 0.00 | 53 | 1003.6 |
| 20260505192959 | 43 | 273 | 3.5 | 7.0 | 0.00 | 0.00 | 0.00 | 51 | 1003.6 |
| 20260505191842 | 43 | 270 | 3.5 | 8.7 | 0.00 | 0.00 | 0.00 | 48 | 1003.5 |
| 20260505190912 | 44 | 268 | 2.6 | 7.0 | 0.00 | 0.00 | 0.00 | 47 | 1003.4 |
| 20260505190004 | 44 | 275 | 3.5 | 7.0 | 0.00 | 0.00 | 0.00 | 46 | 1003.3 |
| 20260505185305 | 44 | 269 | 3.5 | 7.8 | 0.00 | 0.00 | 0.00 | 45 | 1003.3 |
| 20260505184714 | 44 | 277 | 3.5 | 7.0 | 0.00 | 0.00 | 0.00 | 45 | 1003.2 |
| 20260505184129 | 45 | 284 | 4.3 | 8.7 | 0.00 | 0.00 | 0.00 | 44 | 1003.2 |
| 20260505183249 | 45 | 263 | 5.2 | 10.4 | 0.00 | 0.00 | 0.00 | 43 | 1003.0 |
| 20260505182214 | 45 | 274 | 3.5 | 10.4 | 0.00 | 0.00 | 0.00 | 43 | 1002.9 |
| 20260505181109 | 46 | 263 | 1.7 | 4.3 | 0.00 | 0.00 | 0.00 | 43 | 1002.8 |
| 20260505175919 | 46 | 296 | 3.5 | 10.4 | 0.00 | 0.00 | 0.00 | 41 | 1002.7 |
| 20260505175319 | 47 | 261 | 4.3 | 12.2 | 0.00 | 0.00 | 0.00 | 41 | 1002.7 |
| 20260505174404 | 47 | 294 | 5.2 | 9.6 | 0.00 | 0.00 | 0.00 | 41 | 1002.6 |
| 20260505173222 | 47 | 271 | 3.5 | 6.1 | 0.00 | 0.00 | 0.00 | 41 | 1002.5 |
| 20260505172306 | 48 | 258 | 2.6 | 10.4 | 0.00 | 0.00 | 0.00 | 40 | 1002.5 |
| 20260505171051 | 48 | 279 | 5.2 | 11.3 | 0.00 | 0.00 | 0.00 | 40 | 1002.4 |
| 20260505170232 | 48 | 285 | 4.3 | 9.6 | 0.00 | 0.00 | 0.00 | 40 | 1002.4 |
| 20260505164802 | 49 | 273 | 7.0 | 13.9 | 0.00 | 0.00 | 0.00 | 39 | 1002.2 |
| 20260505164122 | 49 | 269 | 7.0 | 12.2 | 0.00 | 0.00 | 0.00 | 38 | 1002.2 |
| 20260505162634 | 50 | 302 | 4.3 | 10.4 | 0.00 | 0.00 | 0.00 | 37 | 1002.3 |
| 20260505161829 | 50 | 258 | 4.3 | 9.6 | 0.00 | 0.00 | 0.00 | 34 | 1002.2 |
| 20260505161209 | 50 | 296 | 5.2 | 9.6 | 0.00 | 0.00 | 0.00 | 32 | 1002.0 |
| 20260505160521 | 51 | 294 | 7.0 | 17.4 | 0.00 | 0.00 | 0.00 | 30 | 1002.1 |
| 20260505152909 | 53 | 282 | 5.2 | 13.0 | 0.00 | 0.00 | 0.00 | 34 | 1002.0 |
| 20260505151421 | 53 | 270 | 4.3 | 10.4 | 0.00 | 0.00 | 0.00 | 31 | 1001.7 |
| 20260505150342 | 52 | 271 | 4.3 | 11.3 | 0.00 | 0.00 | 0.00 | 32 | 1001.7 |
| 20260505140129 | 54 | 270 | 5.2 | 12.2 | 0.00 | 0.00 | 0.00 | 33 | 1001.5 |
| 20260505124039 | 51 | 299 | 4.3 | 9.6 | 0.00 | 0.00 | 0.00 | 45 | 1001.1 |
| 20260505123151 | 51 | 288 | 3.5 | 9.6 | 0.00 | 0.00 | 0.00 | 48 | 1001.0 |
| 20260505121832 | 51 | 315 | 6.1 | 12.2 | 0.00 | 0.00 | 0.00 | 46 | 1001.0 |
| 20260505120819 | 53 | 286 | 3.5 | 8.7 | 0.00 | 0.00 | 0.00 | 41 | 1000.8 |
| 20260505115832 | 53 | 296 | 6.1 | 12.2 | 0.00 | 0.00 | 0.00 | 39 | 1000.8 |
| 20260505114806 | 53 | 309 | 6.1 | 11.3 | 0.00 | 0.00 | 0.00 | 44 | 1000.6 |
| 20260505113421 | 52 | 325 | 10.4 | 17.4 | 0.00 | 0.00 | 0.00 | 43 | 1000.3 |
| 20260505112519 | 54 | 306 | 7.8 | 17.4 | 0.00 | 0.00 | 0.00 | 40 | 1000.2 |
| 20260505111522 | 53 | 288 | 4.3 | 8.7 | 0.00 | 0.00 | 0.00 | 41 | 1000.2 |
| 20260505110239 | 52 | 312 | 7.0 | 16.5 | 0.00 | 0.00 | 0.00 | 46 | 1000.1 |
| 20260505101614 | 52 | 313 | 7.0 | 13.9 | 0.00 | 0.00 | 0.00 | 47 | 999.3 |
| 20260505100854 | 54 | 316 | 6.1 | 13.0 | 0.00 | 0.00 | 0.00 | 46 | 999.2 |
| 20260505095654 | 53 | 304 | 7.8 | 16.5 | 0.00 | 0.00 | 0.00 | 46 | 999.0 |
| 20260505094549 | 52 | 301 | 8.7 | 21.7 | 0.00 | 0.00 | 0.00 | 51 | 998.9 |
| 20260505093924 | 52 | 304 | 5.2 | 11.3 | 0.00 | 0.00 | 0.00 | 52 | 998.8 |
| 20260505092809 | 54 | 263 | 2.6 | 7.0 | 0.00 | 0.00 | 0.00 | 51 | 998.7 |
| 20260505091554 | 52 | 312 | 4.3 | 9.6 | 0.00 | 0.00 | 0.00 | 56 | 998.5 |
| 20260505090859 | 51 | 240 | 1.7 | 7.8 | 0.00 | 0.00 | 0.00 | 65 | 998.6 |
| 20260505090349 | 52 | 201 | 5.2 | 12.2 | 0.00 | 0.00 | 0.00 | 62 | 998.2 |
| 20260505085736 | 53 | 189 | 8.7 | 18.2 | 0.00 | 0.00 | 0.00 | 60 | 998.0 |
| 20260505084951 | 52 | 184 | 8.7 | 16.5 | 0.00 | 0.00 | 0.00 | 60 | 997.9 |